CYLTCYRB

Guest
Details From CYLT - ALERT
To CYRB - RESOLUTE BAY
Flight Number -
Tags generated
Created
Modified
Stats Distance 600 nm / 1,111 km
Max Altitude 18,000 ft / 5,486 m
Waypoints 5
Social Downloads 1
Likes 0
Share VATSIM

Download

Looking for another format? Having issues loading an existing format? Contact us
Advertisement - Login to hide

Notes

Basic altitude profile: - Ascent Rate: 1000ft/min - Ascent Speed: 230kts - Cruise Altitude: 23000ft - Cruise Speed: 450kts - Descent Rate: 1500ft/min - Descent Speed: 250kts Options: - Use NATs: yes - Use PACOTS: yes - Use low airways: yes - Use high airways: yes

Route

CYLT LT BR84 RB CYRB

ID Type Via Altitude Latitude Longitude Leg Dist Tot Dist Heading (true) Name
O CYLT APT - 0 ft / 0 m 82.51778˚ -62.28056˚ - 0 nm - ALERT
LT NDB - 200 ft / 61 m 82.52583˚ -62.21139˚ 0 nm 0 nm 48° / 48° ALERT NDB
YEU NDB BR84 (AWY-LO) 18,000 ft / 5,486 m 79.99083˚ -85.89833˚ 261 nm 262 nm 247° / 224° EUREKA NDB
RB NDB BR84 (AWY-LO) 8,000 ft / 2,438 m 74.74714˚ -94.99503˚ 335 nm 597 nm 205° / 196° RESOLUTE BAY NDB
O CYRB APT - 0 ft / 0 m 74.71690˚ -94.96933˚ 1 nm 599 nm 167° / 167° RESOLUTE BAY

Altitude Profile

Advertisement - Login to hide

Weather


0- 5 10 15 20 25 30 35+ Temperature / ° C

Clouds and Precipitation
Forecast for 2018-05-20 18:00 UTC. Updated an hour ago

Ground ~20,000 ft ~40,000 ft Winds

CYLT

Details ICAO CYLT (YLT)
Name ALERT
Region Canada
Timezone Unknown (UTC+0.0)
Stats Elevation 100 ft / 30 m (AMSL)
Location 82.517778° -62.280555°
Runways 1
Magnetic Variation 49.236° W

METAR

CYLT 201600Z 35017KT 5SM -SN BR FEW010 OVC016 M10/M12 A2991 RMK SF1ST7 SLP132

Decode

TAF

TAF TAF CYLT 201130Z 2012/2024 35018KT 1SM -SN OVC008 TEMPO 2012/2024 5SM BR OVC010 RMK NXT FCST BY 201800Z

Decode

Departure Runways

ID Width Length Bearing (true) Bearing (mag) Surface Threshold Offset Overrun Length
05T 150 ft / 46 m 5,463 ft / 1,665 m 48.05° 97.29° Gravel 0 ft / 0 m 0 ft / 0 m
23T 150 ft / 46 m 5,463 ft / 1,665 m 228.13° 277.37° Gravel 0 ft / 0 m 0 ft / 0 m

CYRB

Details ICAO CYRB (YRB)
Name RESOLUTE BAY
Region Canada
Timezone America/Resolute (UTC-5.0)
Stats Elevation 215 ft / 66 m (AMSL)
Location 74.716900° -94.969334°
Runways 1
Magnetic Variation 22.397° W

METAR

CYRB 201600Z 35009KT 15SM -SN OVC045 M04/M08 A2977 RMK SC8 SLP089

Decode

TAF

TAF AMD CYRB 201323Z 2013/2112 02010KT P6SM OVC050 TEMPO 2013/2112 3SM -SN BR OVC015 RMK NXT FCST BY 201800Z

Decode

Destination Runways

ID Width Length Bearing (true) Bearing (mag) Surface Threshold Offset Overrun Length
17T 200 ft / 61 m 6,482 ft / 1,976 m 166.69° 189.09° Gravel 0 ft / 0 m 0 ft / 0 m
35T 200 ft / 61 m 6,482 ft / 1,976 m 346.71° 9.11° Gravel 0 ft / 0 m 0 ft / 0 m

Popular Alternatives